Regional Weather Roundup
Issued by NWS Little Rock, AR

Home | Current Version | Previous Version | Graphics & Text | Print | Product List | Glossary On
Versions: 1 2 3 4 5 6 7 8 9 10 11 12 13 14 15 16 17 18 19 20 21 22 23 24 25 26 27 28 29 30 31 32 33 34 35 36 37 38 39 40 41 42 43 44 45 46 47 48 49 50
000
ASUS44 KLZK 141305
RWRLZK

WEATHER ROUNDUP FOR ARKANSAS
NATIONAL WEATHER SERVICE LITTLE ROCK AR
700 AM CST SUN FEB 14 2016

NOTE: "FAIR" INDICATES FEW OR NO CLOUDS BELOW 12,000 FEET WITH NO
SIGNIFICANT WEATHER AND/OR OBSTRUCTIONS TO VISIBILITY.

ARZ001-003-010-029-141400-
NORTHWEST ARKANSAS

CITY           SKY/WX    TMP DP  RH WIND       PRES   REMARKS
FAYETTEVILLE   CLOUDY    38  26  62 S9        29.97F
FORT SMITH     CLOUDY    35  14  42 E14       30.06R WCI  26
HARRISON       CLOUDY    29  11  47 SE14      30.02F WCI  18
BENTONVILLE    CLOUDY    39  21  48 S6        29.99R
ROGERS         CLOUDY    38  23  55 SE7       29.98F
SILOAM SPGS    CLOUDY    39  21  48 S7        29.98R
HIGHFILL       CLOUDY    40  27  59 S10       29.97F
SPRINGDALE     CLOUDY    39  25  56 SE8       29.99F
$$

ARZ004-005-016-141400-
NORTH CENTRAL ARKANSAS

CITY           SKY/WX    TMP DP  RH WIND       PRES   REMARKS
BATESVILLE     CLOUDY    30  14  51 E8        30.17F WCI  23
FLIPPIN        CLOUDY    28   9  43 SE8       30.10F WCI  20
MTN HOME       CLOUDY    27  10  49 SE9       30.10F WCI  18
$$

ARZ040-041-141400-
WEST CENTRAL ARKANSAS

CITY           SKY/WX    TMP DP  RH WIND       PRES   REMARKS
MENA           CLOUDY    45  32  61 S5        30.06S
MOUNT IDA      CLOUDY    38  16  40 SE6       30.08R
$$

ARZ009-017-025-026-028-141400-
NORTHEAST ARKANSAS

CITY           SKY/WX    TMP DP  RH WIND       PRES   REMARKS
CORNING        LGT RAIN  28  19  69 E14       30.24R WCI  17
JONESBORO      CLOUDY    29  20  69 E12       30.21F WCI  19
NEWPORT        CLOUDY    32  15  49 E9        30.20F WCI  24
WALNUT RIDGE   CLOUDY    28  14  54 SE12      30.22F WCI  18
BLYTHEVILLE    CLOUDY    31  11  43 E16       30.23F WCI  20
$$

ARZ022-023-033-042-044-141400-
CENTRAL ARKANSAS

CITY           SKY/WX    TMP DP  RH WIND       PRES   REMARKS
LITTLE ROCK    CLOUDY    36  18  48 E6        30.16F
N LITTLE ROCK    N/A     33  21  60 E7        30.16F WCI  27
JACKSONVILLE   CLOUDY    34  17  49 E6        30.14F WCI  29
SEARCY         CLOUDY    33  15  47 E6        30.19S WCI  28
HOT SPRINGS    CLOUDY    37  17  44 E6        30.12F
RUSSELLVILLE   CLOUDY    32  14  47 E6        30.14S WCI  26
CLINTON        CLOUDY    32  16  51 CALM      30.16S
$$

ARZ036-141400-
EAST ARKANSAS

CITY           SKY/WX    TMP DP  RH WIND       PRES   REMARKS
WEST MEMPHIS   CLOUDY    34  12  40 SE13      30.20F WCI  25
$$

ARZ050-053-066-070-073-141400-
SOUTHWEST ARKANSAS

CITY           SKY/WX    TMP DP  RH WIND       PRES   REMARKS
ARKADELPHIA    CLOUDY    39  21  48 SE3       30.15F
CAMDEN         CLOUDY    41  18  38 SE3       30.15F
TEXARKANA      CLOUDY    43  23  45 VRB3      30.11S
EL DORADO      CLOUDY    43  24  47 S7        30.14S
DE QUEEN       CLOUDY    41  22  46 E10       30.09F
$$

ARZ056-057-069-141400-
SOUTHEAST ARKANSAS

CITY           SKY/WX    TMP DP  RH WIND       PRES   REMARKS
PINE BLUFF     CLOUDY    39  21  48 SE9       30.16S
STUTTGART      CLOUDY    37  18  44 SE10      30.16F
MONTICELLO     CLOUDY    42  21  43 SE9       30.17S

$$





USA.gov is the U.S. government's official web portal to all federal, state and local government web resources and services.